Misión y Visión

La misión es proporcionar información fiable a la navegación aérea, contribuyendo a la seguridad, regularidad y eficiencia de la Navegación Aérea Internacional

La visión es contribuir sustancialmente al desarrollo de conocimientos y a la utilización de la meteorología aeronáutica a nivel nacional e internacional, mediante la innovación y la coparticipación con sectores sociales y productivos de la sociedad.

 
  Inicio
  Metar
  Taf
  Wintemp
  SIGMET
  Avisos
  Pronósticos
  Carpeta Meteorologica
  Imágenes Satelitales
  Climatología Aeronáutica
   
  ¿Quienes Somos?
  Contacto
  Eventos
  Publicaciones
  Politica de la Calidad
Taf

DIRECCIONES PARA INFORMES NACIONALES E INTERNACIONALES
(Metar /Speci - TAF)

http://adds.aviationweather.gov/tafs/index.php

http://www.ogimet.com/metars.phtml

PRONÓSTICOS DE AERÓDROMO

Cuando sea necesario, el encabezamiento abreviado puede incluir un cuarto grupo consistente en tres letras para identificar los boletines demorados (RRA), corregidos (CCA) o enmendados (AAA). Los boletines adicionales demorados, corregidos o enmendados deben identificarse con las letras RRB, RRC, etc.; CCB, CCC,etc.;AAB, AAC,etc.

 

 27/04/2015

  

TAF MPTO 

TAF MPTO 271700Z 2718/2818 18004KT 9000 SCT018 SCT090 PROB30 TEMPO 2719/2723 7000 -SHRA SCT015CB BKN090 BECMG 2800/2804 00000KT 9999 SCT018=

TAF MPPA   

TAF MPPA 271700Z 2718/2818 18005KT 9000 SCT018 SCT090 PROB30 TEMPO 2719/2723 7000 -TSRA SCT015CB BKN090 BECMG 2800/2804 00000KT 9999 SCT018=

TAF MPMG TAF MPMG 271700Z 2718/2806 19004KT 9000 SCT018 BKN090 PROB30 TEMPO 2719/2723 6000 -TSRA SCT015CB BKN090 BECMG 2800/2804 00000KT 9999 SCT018=

 

 

TAF MPDA 

 

TAF MPDA 271700Z 2718/2806 22006KT 9000 SCT018 SCT100 PROB30 TEMPO 2721/2801 6000 -TSRA SCT015CB BKN090 BECMG 2801/2804 00000KT 9999 SCT018=

 

 
 















  Noticias AAC
  Directorio
  Contáctenos
  Historia
  Quejas y Sugerencias
  Etica y Transparencia

  Gestión SSP/SMS
  Seguridad Aérea
  Navegación Aérea
  Transporte Aéreo

  Tramites
  Áeronaves de Alquiler

  Meteorología
  I.S.F.P.A
  Notam
  Peligro Aviario
  AVSEC
  UPIA
  Permisos
 




DECLARACIÓN DE PRIVACIDAD